User: anonymous   Login
Location: Unspecified
(0.0000°N, 0.0000°E)
Time: 20:44:27
(UTC+01:00)
Language:

Cosmos 2082 Rocket - Orbit

View from above orbital plane
View from above orbital plane
View from above satellite
View from above satellite

Ground track
Ground track

The orbit data is extracted from the following two-line orbital elements,

1 20625U 90046B   16337.69986937 -.00000287  00000-0 -12447-3 0  9991
2 20625  70.9984 201.5226 0012667  37.6200 322.5806 14.14608455370051
Epoch (UTC): 02 December 2016 16:47:48
Eccentricity: 0.0012667
inclination: 70.9984°
perigee height: 834 km
apogee height: 853 km
right ascension of ascending node: 201.5226°
argument of perigee: 37.6200°
revolutions per day: 14.14608455
mean anomaly at epoch: 322.5806°
orbit number at epoch: 37005

The dashed part of the orbit path shows where the satellite is in the earth's shadow,  

DLR